Change the Weather History Date:

Friday, March 1, 2013

  Actual Average Record
Temperature  
Mean Temperature 32 °F -  
Max Temperature 35 °F 35 °F 48 °F (2004)
Min Temperature 30 °F 18 °F -5 °F (2014)
Degree Days  
Heating Degree Days 32    
Moisture  
Dew Point 26 °F    
Average Humidity 75    
Maximum Humidity 93    
Minimum Humidity 64    
Precipitation  
Precipitation 0.00 in - - ()
Sea Level Pressure  
Sea Level Pressure 29.60 in    
Wind  
Wind Speed 8 mph (NNW)    
Max Wind Speed 16 mph    
Max Gust Speed 22 mph    
Visibility 9 miles    
Events      
Averages and records for this station are not official NWS values.
T = Trace of Precipitation, MM = Missing Value Source: NWS Daily Summary

Daily Weather History Graph

Daily Weather History Graph

Search for Another Location

Airport or City:

Trip Planner

Search our weather history database for the weather conditions in past years. The results will help you decide how hot, cold, wet, or windy it might be!

Date:

Astronomy

Mar. 01, 2013 Rise Set
Actual Time 6:18 AM EST 5:32 PM EST
Civil Twilight 5:50 AM EST 6:00 PM EST
Nautical Twilight 5:17 AM EST 6:33 PM EST
Astronomical Twilight 4:44 AM EST 7:06 PM EST
Moon 10:11 PM EST 7:55 AM EST
Length of Visible Light 12h 10m
Length of Day
11h 13m
Waning Gibbous, 83% of the Moon is Illuminated
Mar 1
Waning Gibbous
Mar 4
Last Quarter
Mar 11
New
Mar 19
First Quarter
Mar 27
Full

Hourly Weather History & Observations

Time (EST) Temp. Windchill Dew Point Humidity Pressure Visibility Wind Dir Wind Speed Gust Speed Precip Events Conditions
12:35 AM 33.8 °F 25.8 °F 30.2 °F 87% 29.53 in 10.0 mi NNE 10.4 mph - N/A   Overcast
12:55 AM 33.8 °F 27.7 °F 26.6 °F 75% 29.53 in 10.0 mi NNE 6.9 mph - N/A   Overcast
1:15 AM 33.8 °F 26.4 °F 26.6 °F 75% 29.53 in 10.0 mi North 9.2 mph - N/A   Overcast
1:35 AM 32.0 °F 24.8 °F 26.6 °F 80% 29.53 in 10.0 mi North 8.1 mph - N/A   Overcast
1:55 AM 32.0 °F 25.6 °F 28.4 °F 87% 29.52 in 10.0 mi North 6.9 mph - N/A   Mostly Cloudy
2:15 AM 30.2 °F 23.4 °F 28.4 °F 93% 29.52 in 10.0 mi North 6.9 mph - N/A   Mostly Cloudy
2:35 AM 32.0 °F 24.8 °F 21.2 °F 64% 29.52 in 10.0 mi North 8.1 mph - N/A   Overcast
2:55 AM 30.2 °F 23.4 °F 24.8 °F 80% 29.53 in 10.0 mi North 6.9 mph - N/A   Mostly Cloudy
3:15 AM 30.2 °F 23.4 °F 26.6 °F 86% 29.53 in 10.0 mi North 6.9 mph - N/A   Overcast
3:35 AM 30.2 °F 25.4 °F 28.4 °F 93% 29.53 in 10.0 mi North 4.6 mph - N/A   Overcast
4:15 AM 30.2 °F 23.4 °F 23.0 °F 75% 29.54 in 10.0 mi North 6.9 mph - N/A   Scattered Clouds
4:55 AM 30.2 °F 24.3 °F 26.6 °F 86% 29.54 in 10.0 mi NNW 5.8 mph - N/A   Clear
5:15 AM 30.2 °F 22.6 °F 23.0 °F 75% 29.54 in 10.0 mi NNW 8.1 mph - N/A   Clear
5:35 AM 30.2 °F 23.4 °F 24.8 °F 80% 29.55 in 10.0 mi North 6.9 mph - N/A   Scattered Clouds
5:55 AM 30.2 °F 24.3 °F 26.6 °F 86% 29.55 in 10.0 mi NNW 5.8 mph - N/A   Overcast
6:15 AM 30.2 °F 23.4 °F 24.8 °F 80% 29.55 in 10.0 mi North 6.9 mph - N/A   Overcast
6:35 AM 30.2 °F 23.4 °F 24.8 °F 80% 29.56 in 10.0 mi NNW 6.9 mph - N/A   Overcast
6:55 AM 30.2 °F 23.4 °F 26.6 °F 86% 29.56 in 10.0 mi NNW 6.9 mph - N/A   Overcast
7:15 AM 32.0 °F 26.4 °F 26.6 °F 80% 29.57 in 10.0 mi North 5.8 mph - N/A   Overcast
7:35 AM 30.2 °F 21.9 °F 21.2 °F 69% 29.58 in 10.0 mi North 9.2 mph - N/A   Scattered Clouds
7:55 AM 32.0 °F 23.0 °F 24.8 °F 75% 29.58 in 10.0 mi North 11.5 mph - N/A   Clear
8:15 AM 32.0 °F 24.8 °F 26.6 °F 80% 29.58 in 10.0 mi North 8.1 mph - N/A   Partly Cloudy
8:35 AM 33.8 °F 23.9 °F 24.8 °F 70% 29.59 in 10.0 mi North 15.0 mph 19.6 mph N/A   Scattered Clouds
9:15 AM 33.8 °F 24.8 °F 24.8 °F 70% 29.60 in 10.0 mi North 12.7 mph 17.3 mph N/A   Overcast
9:35 AM 35.6 °F 27.1 °F 26.6 °F 70% 29.60 in 10.0 mi North 12.7 mph - N/A   Overcast
9:55 AM 35.6 °F 25.9 °F 24.8 °F 65% 29.60 in 10.0 mi North 16.1 mph 21.9 mph N/A   Overcast
10:15 AM 35.6 °F 25.9 °F 24.8 °F 65% 29.60 in 10.0 mi North 16.1 mph - N/A   Overcast
10:35 AM 35.6 °F 27.1 °F 26.6 °F 70% 29.60 in 10.0 mi North 12.7 mph - N/A   Overcast
10:55 AM 35.6 °F 27.1 °F 26.6 °F 70% 29.61 in 10.0 mi North 12.7 mph - N/A   Overcast
11:16 AM 35.6 °F 28.0 °F 24.8 °F 65% 29.61 in 10.0 mi North 10.4 mph - N/A   Overcast
11:35 AM 35.6 °F 28.6 °F 24.8 °F 65% 29.61 in 10.0 mi North 9.2 mph - N/A   Overcast
12:15 PM 35.6 °F 27.1 °F 26.6 °F 70% 29.61 in 10.0 mi NNE 12.7 mph - N/A   Overcast
12:35 PM 35.6 °F 25.9 °F 26.6 °F 70% 29.61 in 10.0 mi North 16.1 mph - N/A   Overcast
1:15 PM 35.6 °F 29.2 °F 24.8 °F 65% 29.61 in 10.0 mi North 8.1 mph - N/A   Overcast
1:35 PM 35.6 °F 27.1 °F 24.8 °F 65% 29.61 in 10.0 mi North 12.7 mph - N/A   Overcast
1:55 PM 35.6 °F 28.6 °F 26.6 °F 70% 29.61 in 10.0 mi North 9.2 mph - N/A   Overcast
2:15 PM 35.6 °F 27.1 °F 24.8 °F 65% 29.61 in 10.0 mi North 12.7 mph - N/A   Overcast
2:35 PM 35.6 °F 26.2 °F 24.8 °F 65% 29.61 in 10.0 mi NNE 15.0 mph - N/A   Overcast
2:55 PM 35.6 °F 28.6 °F 28.4 °F 75% 29.61 in 10.0 mi North 9.2 mph - N/A   Overcast
3:15 PM 35.6 °F 28.6 °F 28.4 °F 75% 29.62 in 10.0 mi North 9.2 mph - N/A   Overcast
3:35 PM 35.6 °F 28.0 °F 24.8 °F 65% 29.62 in 10.0 mi NNE 10.4 mph - N/A   Overcast
3:55 PM 35.6 °F 29.9 °F 24.8 °F 65% 29.62 in 10.0 mi North 6.9 mph - N/A   Overcast
4:15 PM 35.6 °F 29.9 °F 28.4 °F 75% 29.62 in 10.0 mi North 6.9 mph - N/A   Overcast
4:35 PM 35.6 °F 31.7 °F 26.6 °F 70% 29.63 in 10.0 mi North 4.6 mph - N/A   Overcast
4:55 PM 35.6 °F 29.9 °F 26.6 °F 70% 29.63 in 10.0 mi NNW 6.9 mph - N/A   Overcast
5:15 PM 35.6 °F 29.9 °F 24.8 °F 65% 29.63 in 10.0 mi NNW 6.9 mph - N/A   Overcast
5:35 PM 35.6 °F 32.8 °F 26.6 °F 70% 29.64 in 10.0 mi NNW 3.5 mph - N/A   Overcast
5:55 PM 35.6 °F - 28.4 °F 75% 29.64 in 10.0 mi Calm Calm - N/A   Overcast
6:15 PM 35.6 °F 31.7 °F 28.4 °F 75% 29.65 in 10.0 mi West 4.6 mph - N/A   Overcast
6:35 PM 35.6 °F 31.7 °F 26.6 °F 70% 29.65 in 10.0 mi WNW 4.6 mph - N/A   Overcast
6:55 PM 35.6 °F 32.8 °F 24.8 °F 65% 29.65 in 10.0 mi West 3.5 mph - N/A   Overcast
7:15 PM 35.6 °F 32.8 °F 24.8 °F 65% 29.65 in 10.0 mi WNW 3.5 mph - N/A   Overcast
7:35 PM 35.6 °F - 26.6 °F 70% 29.65 in 10.0 mi Calm Calm - N/A   Overcast
7:55 PM 35.6 °F 32.8 °F 28.4 °F 75% 29.65 in 10.0 mi NNW 3.5 mph - N/A   Overcast
8:15 PM 33.8 °F - 26.6 °F 75% 29.66 in 10.0 mi North - - N/A   Overcast
8:35 PM 33.8 °F 30.8 °F 26.6 °F 75% 29.66 in 10.0 mi NW 3.5 mph - N/A   Overcast
8:55 PM 33.8 °F 30.8 °F 28.4 °F 81% 29.66 in 9.0 mi NW 3.5 mph - N/A   Overcast
9:15 PM 33.8 °F - 28.4 °F 81% 29.66 in 9.0 mi Calm Calm - N/A   Overcast
9:35 PM - - - N/A% 29.65 in 8.0 mi Calm Calm - N/A   Overcast
9:55 PM 33.8 °F 30.8 °F 26.6 °F 75% 29.66 in 3.0 mi WNW 3.5 mph - N/A   Overcast
10:15 PM 32.0 °F 27.5 °F 30.2 °F 93% 29.66 in 3.0 mi WNW 4.6 mph - N/A   Overcast
10:35 PM 32.0 °F 27.5 °F 28.4 °F 87% 29.66 in 3.0 mi WNW 4.6 mph - N/A   Overcast
10:55 PM 32.0 °F 27.5 °F 26.6 °F 80% 29.65 in 5.0 mi WNW 4.6 mph - N/A   Overcast
11:15 PM 32.0 °F 27.5 °F 30.2 °F 93% 29.65 in 5.0 mi NW 4.6 mph - N/A   Overcast
11:35 PM 32.0 °F 27.5 °F 28.4 °F 87% 29.65 in 6.0 mi WNW 4.6 mph - N/A   Overcast
11:55 PM 32.0 °F 26.4 °F 26.6 °F 80% 29.64 in 7.0 mi WNW 5.8 mph - N/A   Overcast